Location: Unspecified
(0.0000°N, 0.0000°E)
Time: 10:15:57
(UTC+00:00)

N. Korean satellite - Visible Passes

Search period start: 21 October 2019 00:00
Search period end: 31 October 2019 00:00
Orbit: 455 x 508 km, 97.2° (Epoch: 20 October)

Date Brightness Start Highest point End Pass type
(mag) Time Alt. Az. Time Alt. Az. Time Alt. Az.
21 Oct 10.7 04:38:47 10° E 04:39:17 10° ESE 04:39:46 10° ESE visible
24 Oct 9.8 04:53:58 10° NE 04:56:41 19° ESE 04:59:25 10° SSE visible
24 Oct 10.0 18:15:07 10° SW 18:17:17 16° WSW 18:19:26 10° WNW visible
27 Oct 8.5 05:10:39 10° NNE 05:14:05 37° E 05:17:33 10° S visible
28 Oct 10.1 04:46:41 10° ENE 04:48:51 15° E 04:51:01 10° SE visible
28 Oct 9.6 18:06:44 10° SSW 18:09:23 21° WSW 18:12:01 10° NW visible
